CW2293 Weather Reports


Display with metric or nautical units.
time (UTC)temp
F
wind
direction
speed
MPH
gust
MPH
rain 1hr
in
rain 24hr
in
rain mn
in
humidity
%
barometer
mb
20230203061302 0 25 0.0 3.0 0.00 0.00 0.00 2 886.4
20230203060802 0 257 2.0 9.0 0.00 0.00 0.00 2 886.4
20230203060304 0 196 0.0 0.0 0.00 0.00 0.00 2 886.4
20230203055305 0 178 4.0 8.0 0.00 0.00 0.00 2 886.4
20230203054803 0 205 1.0 6.0 0.00 0.00 0.00 2 886.4
20230203054302 0 188 0.0 7.0 0.00 0.00 0.00 2 886.4
20230203053803 0 175 1.0 7.0 0.00 0.00 0.00 2 886.4
20230203053301 0 145 1.0 3.0 0.00 0.00 0.00 2 886.4
20230203052305 0 168 0.0 3.0 0.00 0.00 0.00 2 886.4
20230203051303 0 207 2.0 7.0 0.00 0.00 0.00 2 886.4
20230203050802 0 194 1.0 6.0 0.00 0.00 0.00 2 886.4
20230203045803 0 199 3.0 8.0 0.00 0.00 0.00 2 886.4
20230203044802 0 192 2.0 9.0 0.00 0.00 0.00 2 886.4
20230203044302 0 170 2.0 8.0 0.00 0.00 0.00 2 886.4
20230203043802 0 184 2.0 8.0 0.00 0.00 0.00 2 886.4
20230203042801 0 107 2.0 6.0 0.00 0.00 0.00 2 886.4
20230203042305 0 147 1.0 7.0 0.00 0.00 0.00 2 886.4
20230203041802 0 204 3.0 9.0 0.00 0.00 0.00 2 886.4
20230203040303 0 168 2.0 7.0 0.00 0.00 0.00 2 886.4
20230203035802 0 211 1.0 9.0 0.00 0.00 0.00 2 886.4
20230203035305 0 185 2.0 7.0 0.00 0.00 0.00 2 886.4
20230203034802 0 185 2.0 7.0 0.00 0.00 0.00 2 886.4
20230203034302 0 167 1.0 6.0 0.00 0.00 0.00 2 886.4
20230203033802 0 163 2.0 7.0 0.00 0.00 0.00 2 886.4
20230203033302 0 182 3.0 7.0 0.00 0.00 0.00 2 886.4
20230203032802 0 159 2.0 7.0 0.00 0.00 0.00 2 886.4
20230203031802 0 140 3.0 8.0 0.00 0.00 0.00 2 886.4
20230203030804 0 190 3.0 7.0 0.00 0.00 0.00 2 886.4
20230203030302 0 198 3.0 10.0 0.00 0.00 0.00 2 886.4
20230203025801 0 280 0.0 7.0 0.00 0.00 0.00 2 886.4
20230203025306 0 192 1.0 12.0 0.00 0.00 0.00 2 886.4
20230203024802 0 191 2.0 6.0 0.00 0.00 0.00 2 886.4
20230203023802 0 182 2.0 7.0 0.00 0.00 0.00 2 886.4
20230203023302 0 191 1.0 6.0 0.00 0.00 0.00 2 886.4
20230203022802 0 152 2.0 8.0 0.00 0.00 0.00 2 886.4
20230203022305 0 197 3.0 7.0 0.00 0.00 0.00 2 886.4
20230203021802 0 149 1.0 5.0 0.00 0.00 0.00 2 886.4
20230203021304 0 220 1.0 2.0 0.00 0.00 0.00 2 886.4
20230203020803 0 204 1.0 7.0 0.00 0.00 0.00 2 886.4
20230203020302 0 181 1.0 7.0 0.00 0.00 0.00 2 886.4
20230203015803 0 153 3.0 7.0 0.00 0.00 0.00 2 886.4
20230203015306 0 184 1.0 7.0 0.00 0.00 0.00 2 886.4
20230203014302 0 132 3.0 7.0 0.00 0.00 0.00 2 886.4
20230203012803 0 204 3.0 8.0 0.00 0.00 0.00 2 886.4
20230203012305 0 115 1.0 6.0 0.00 0.00 0.00 2 886.4
20230203011803 0 179 1.0 8.0 0.00 0.00 0.00 2 886.4
20230203011302 0 202 3.0 13.0 0.00 0.00 0.00 2 886.4
20230203010802 0 203 3.0 9.0 0.00 0.00 0.00 2 886.4
20230203010302 0 181 3.0 9.0 0.00 0.00 0.00 2 886.4
20230203005305 0 154 2.0 7.0 0.00 0.00 0.00 2 886.4
20230203004802 0 188 3.0 9.0 0.00 0.00 0.00 2 886.4
20230203004302 0 171 1.0 8.0 0.00 0.00 0.00 2 886.4
20230203003302 0 200 2.0 8.0 0.00 0.00 0.00 2 886.4
20230203002305 0 121 2.0 8.0 0.00 0.00 0.00 2 886.4
20230203001802 0 147 2.0 7.0 0.00 0.00 0.00 2 886.4
20230203000802 0 170 2.0 7.0 0.00 0.00 0.00 2 886.4
20230203000303 0 270 1.0 2.0 0.00 0.00 0.00 2 886.4
20230202235802 0 119 0.0 3.0 0.00 0.00 0.00 2 886.4
20230202235305 0 125 1.0 7.0 0.00 0.00 0.00 2 886.4
20230202234802 0 220 1.0 7.0 0.00 0.00 0.00 2 886.4
20230202234302 0 107 2.0 8.0 0.00 0.00 0.00 2 886.4
20230202233803 0 122 2.0 7.0 0.00 0.00 0.00 2 886.4
20230202233302 0 249 1.0 8.0 0.00 0.00 0.00 2 886.4
20230202232802 0 144 5.0 9.0 0.00 0.00 0.00 2 886.4
20230202232305 0 127 0.0 5.0 0.00 0.00 0.00 2 886.4
20230202231302 0 216 0.0 7.0 0.00 0.00 0.00 2 886.4
20230202230802 0 165 3.0 9.0 0.00 0.00 0.00 2 886.4
20230202230302 0 265 0.0 5.0 0.00 0.00 0.00 2 886.4
20230202225803 0 191 3.0 12.0 0.00 0.00 0.00 2 886.4
20230202225305 0 158 1.0 10.0 0.00 0.00 0.00 2 886.4
20230202224803 0 128 1.0 7.0 0.00 0.00 0.00 2 886.4
20230202224304 0 196 1.0 5.0 0.00 0.00 0.00 2 886.4
20230202223802 0 240 1.0 6.0 0.00 0.00 0.00 2 886.4
20230202222804 0 196 2.0 6.0 0.00 0.00 0.00 2 886.4
20230202222306 0 163 2.0 6.0 0.00 0.00 0.00 2 886.4
20230202221802 0 168 5.0 13.0 0.00 0.00 0.00 2 886.4
20230202221302 0 173 3.0 9.0 0.00 0.00 0.00 2 886.4
20230202220302 0 190 2.0 8.0 0.00 0.00 0.00 2 886.4
20230202215802 0 181 3.0 8.0 0.00 0.00 0.00 2 886.4
20230202215305 0 181 2.0 10.0 0.00 0.00 0.00 2 886.4
20230202214802 0 123 3.0 9.0 0.00 0.00 0.00 2 886.4
20230202214303 0 179 6.0 14.0 0.00 0.00 0.00 2 886.4
20230202213802 0 211 1.0 9.0 0.00 0.00 0.00 2 886.4
20230202212802 0 240 5.0 10.0 0.00 0.00 0.00 2 886.4
20230202212306 0 166 3.0 10.0 0.00 0.00 0.00 2 886.4
20230202211802 0 186 7.0 14.0 0.00 0.00 0.00 2 886.4
20230202211302 0 151 5.0 10.0 0.00 0.00 0.00 2 886.4
20230202210802 0 131 1.0 13.0 0.00 0.00 0.00 2 886.4
20230202210302 0 158 3.0 10.0 0.00 0.00 0.00 2 886.4
20230202205305 0 197 5.0 12.0 0.00 0.00 0.00 2 886.4
20230202204302 0 174 5.0 10.0 0.00 0.00 0.00 2 886.4
20230202203802 0 163 5.0 14.0 0.00 0.00 0.00 2 886.4
20230202202804 0 123 5.0 10.0 0.00 0.00 0.00 2 886.4
20230202202305 0 222 7.0 15.0 0.00 0.00 0.00 2 886.4
20230202201302 0 140 3.0 8.0 0.00 0.00 0.00 2 886.4
20230202200803 0 172 4.0 9.0 0.00 0.00 0.00 2 886.4
20230202200302 0 160 3.0 7.0 0.00 0.00 0.00 2 886.4
20230202195802 0 163 6.0 14.0 0.00 0.00 0.00 2 886.4
20230202195305 0 81 5.0 13.0 0.00 0.00 0.00 2 886.4
20230202194802 0 184 5.0 12.0 0.00 0.00 0.00 2 886.4
20230202194303 0 181 6.0 14.0 0.00 0.00 0.00 2 886.4
20230202193802 0 138 2.0 8.0 0.00 0.00 0.00 2 886.4
20230202193302 0 222 6.0 14.0 0.00 0.00 0.00 2 886.4
20230202192802 0 143 6.0 15.0 0.00 0.00 0.00 2 886.4
20230202192305 0 145 4.0 10.0 0.00 0.00 0.00 2 886.4
20230202191303 0 156 6.0 10.0 0.00 0.00 0.00 2 886.4
20230202190803 0 194 3.0 7.0 0.00 0.00 0.00 2 886.4
20230202190302 0 119 4.0 12.0 0.00 0.00 0.00 2 886.4
20230202185802 0 150 9.0 15.0 0.00 0.00 0.00 2 886.4
20230202185305 0 213 4.0 12.0 0.00 0.00 0.00 2 886.4
20230202184802 0 226 5.0 12.0 0.00 0.00 0.00 2 886.4
20230202183803 0 229 3.0 8.0 0.00 0.00 0.00 2 886.4
20230202183302 0 179 4.0 9.0 0.00 0.00 0.00 2 886.4
20230202182305 0 234 3.0 8.0 0.00 0.00 0.00 2 886.4
20230202181802 0 167 5.0 9.0 0.00 0.00 0.00 2 886.4
20230202180302 0 242 5.0 9.0 0.00 0.00 0.00 2 886.4
20230202175305 0 185 2.0 9.0 0.00 0.00 0.00 2 886.4
20230202174802 0 215 5.0 10.0 0.00 0.00 0.00 2 886.4
20230202174303 0 215 4.0 9.0 0.00 0.00 0.00 2 886.4
20230202173302 0 184 6.0 10.0 0.00 0.00 0.00 2 886.4
20230202172802 0 155 3.0 9.0 0.00 0.00 0.00 2 886.4
20230202172305 0 168 2.0 10.0 0.00 0.00 0.00 2 886.4
20230202171802 0 209 3.0 7.0 0.00 0.00 0.00 2 886.4
20230202171302 0 164 6.0 9.0 0.00 0.00 0.00 2 886.4
20230202170802 0 236 1.0 10.0 0.00 0.00 0.00 2 886.4
20230202170302 0 233 2.0 8.0 0.00 0.00 0.00 2 886.4
20230202165803 0 138 4.0 9.0 0.00 0.00 0.00 2 886.4
20230202165305 0 152 2.0 8.0 0.00 0.00 0.00 2 886.4
20230202164803 0 235 4.0 10.0 0.00 0.00 0.00 2 886.4
20230202164303 0 207 1.0 6.0 0.00 0.00 0.00 2 886.4
20230202163802 0 77 2.0 7.0 0.00 0.00 0.00 2 886.4
20230202163303 0 150 4.0 9.0 0.00 0.00 0.00 2 886.4
20230202162802 0 177 3.0 8.0 0.00 0.00 0.00 2 886.4
20230202161803 0 213 4.0 8.0 0.00 0.00 0.00 2 886.4
20230202161303 0 198 2.0 9.0 0.00 0.00 0.00 2 886.4
20230202160803 0 197 2.0 8.0 0.00 0.00 0.00 2 886.4
20230202160303 0 163 4.0 12.0 0.00 0.00 0.00 2 886.4
20230202155802 0 177 3.0 9.0 0.00 0.00 0.00 2 886.4
20230202155306 0 226 3.0 9.0 0.00 0.00 0.00 2 886.4
20230202154302 0 225 3.0 8.0 0.00 0.00 0.00 2 886.4
20230202152802 0 182 4.0 12.0 0.00 0.00 0.00 2 886.4
20230202152302 0 208 4.0 10.0 0.00 0.00 0.00 2 886.4
20230202151304 0 178 4.0 8.0 0.00 0.00 0.00 2 886.4
20230202150802 0 234 2.0 7.0 0.00 0.00 0.00 2 886.4
20230202150303 0 188 5.0 9.0 0.00 0.00 0.00 2 886.4
20230202145802 0 202 4.0 9.0 0.00 0.00 0.00 2 886.4
20230202145305 0 239 2.0 6.0 0.00 0.00 0.00 2 886.4
20230202144802 0 169 3.0 8.0 0.00 0.00 0.00 2 886.4
20230202144302 0 161 3.0 6.0 0.00 0.00 0.00 2 886.4
20230202143802 0 138 2.0 9.0 0.00 0.00 0.00 2 886.4
20230202143303 0 120 1.0 5.0 0.00 0.00 0.00 2 886.4
20230202141802 0 330 0.0 3.0 0.00 0.00 0.00 2 886.4
20230202141302 0 128 0.0 2.0 0.00 0.00 0.00 2 886.4
20230202140802 0 170 1.0 3.0 0.00 0.00 0.00 2 886.4
20230202135802 0 158 3.0 7.0 0.00 0.00 0.00 2 886.4
20230202135305 0 169 1.0 6.0 0.00 0.00 0.00 2 886.4
20230202134804 0 130 2.0 8.0 0.00 0.00 0.00 2 886.4
20230202133804 0 184 0.0 0.0 0.00 0.00 0.00 2 886.4
20230202133302 0 162 2.0 5.0 0.00 0.00 0.00 2 886.4
20230202132305 0 186 1.0 2.0 0.00 0.00 0.00 2 886.4
20230202131802 0 185 1.0 3.0 0.00 0.00 0.00 2 886.4
20230202131302 0 159 1.0 3.0 0.00 0.00 0.00 2 886.4
20230202130803 0 83 0.0 0.0 0.00 0.00 0.00 2 886.4
20230202130302 0 83 0.0 0.0 0.00 0.00 0.00 2 886.4
20230202125802 0 83 0.0 0.0 0.00 0.00 0.00 2 886.4
20230202125305 0 83 0.0 0.0 0.00 0.00 0.00 2 886.4
20230202124802 0 83 0.0 0.0 0.00 0.00 0.00 2 886.4
20230202124303 0 83 0.0 0.0 0.00 0.00 0.00 2 886.4
20230202123803 0 83 0.0 0.0 0.00 0.00 0.00 2 886.4
20230202123302 0 83 0.0 0.0 0.00 0.00 0.00 2 886.4
20230202122802 0 83 0.0 0.0 0.00 0.00 0.00 2 886.4
20230202122305 0 83 0.0 0.0 0.00 0.00 0.00 2 886.4
20230202121802 0 83 0.0 0.0 0.00 0.00 0.00 2 886.4
20230202121303 0 83 0.0 0.0 0.00 0.00 0.00 2 886.4
20230202120302 0 83 0.0 0.0 0.00 0.00 0.00 2 886.4
20230202115305 0 83 0.0 0.0 0.00 0.00 0.00 2 886.4
20230202114803 0 83 0.0 0.0 0.00 0.00 0.00 2 886.4
20230202114302 0 83 0.0 0.0 0.00 0.00 0.00 2 886.4
20230202113803 0 83 0.0 0.0 0.00 0.00 0.00 2 886.4
20230202112802 0 83 0.0 0.0 0.00 0.00 0.00 2 886.4
20230202112305 0 83 0.0 0.0 0.00 0.00 0.00 2 886.4
20230202111803 0 83 0.0 0.0 0.00 0.00 0.00 2 886.4
20230202111303 0 83 0.0 0.0 0.00 0.00 0.00 2 886.4
20230202110802 0 83 0.0 0.0 0.00 0.00 0.00 2 886.4
20230202110302 0 83 0.0 0.0 0.00 0.00 0.00 2 886.4
20230202105305 0 83 0.0 0.0 0.00 0.00 0.00 2 886.4
20230202104803 0 83 0.0 0.0 0.00 0.00 0.00 2 886.4
20230202103802 0 83 0.0 0.0 0.00 0.00 0.00 2 886.4
20230202103303 0 83 0.0 0.0 0.00 0.00 0.00 2 886.4
20230202102802 0 83 0.0 0.0 0.00 0.00 0.00 2 886.4
20230202101802 0 83 0.0 0.0 0.00 0.00 0.00 2 886.4
20230202101303 0 83 0.0 0.0 0.00 0.00 0.00 2 886.4
20230202100302 0 83 0.0 0.0 0.00 0.00 0.00 2 886.4
20230202095803 0 83 0.0 0.0 0.00 0.00 0.00 2 886.4
20230202095305 0 83 0.0 0.0 0.00 0.00 0.00 2 886.4
20230202094802 0 83 0.0 0.0 0.00 0.00 0.00 2 886.4
20230202094304 0 83 0.0 0.0 0.00 0.00 0.00 2 886.4
20230202093802 0 83 0.0 0.0 0.00 0.00 0.00 2 886.4
20230202092802 0 83 0.0 0.0 0.00 0.00 0.00 2 886.4
20230202092305 0 83 0.0 0.0 0.00 0.00 0.00 2 886.4
20230202091802 0 83 0.0 0.0 0.00 0.00 0.00 2 886.4
20230202091302 0 83 0.0 1.0 0.00 0.00 0.00 2 886.4
20230202090803 0 103 0.0 0.0 0.00 0.00 0.00 2 886.4
20230202085803 0 131 0.0 0.0 0.00 0.00 0.00 2 886.4
20230202085306 0 131 0.0 0.0 0.00 0.00 0.00 2 886.4
20230202084304 0 131 0.0 0.0 0.00 0.00 0.00 2 886.4
20230202083304 0 131 0.0 0.0 0.00 0.00 0.00 2 886.4
20230202082306 0 131 0.0 0.0 0.00 0.00 0.00 2 886.4
20230202081302 0 131 0.0 0.0 0.00 0.00 0.00 2 886.4
20230202080802 0 131 0.0 0.0 0.00 0.00 0.00 2 886.4
20230202080304 0 131 0.0 0.0 0.00 0.00 0.00 2 886.4
20230202075803 0 131 0.0 0.0 0.00 0.00 0.00 2 886.4
20230202075305 0 131 0.0 0.0 0.00 0.00 0.00 2 886.4
20230202074803 0 131 0.0 0.0 0.00 0.00 0.00 2 886.4
20230202074302 0 131 0.0 0.0 0.00 0.00 0.00 2 886.4
20230202073802 0 131 0.0 0.0 0.00 0.00 0.00 2 886.4
20230202073302 0 131 0.0 0.0 0.00 0.00 0.00 2 886.4
20230202072803 0 131 0.0 0.0 0.00 0.00 0.00 2 886.4
20230202072306 0 131 0.0 0.0 0.00 0.00 0.00 2 886.4
20230202071803 0 131 0.0 1.0 0.00 0.00 0.00 2 886.4
20230202071302 0 133 0.0 2.0 0.00 0.00 0.00 2 886.4
20230202070802 0 157 0.0 0.0 0.00 0.00 0.00 2 886.4
20230202070302 0 157 0.0 1.0 0.00 0.00 0.00 2 886.4
20230202065802 0 157 0.0 1.0 0.00 0.00 0.00 2 886.4
20230202065302 0 285 0.0 0.0 0.00 0.00 0.00 2 886.4
20230202064803 0 285 0.0 0.0 0.00 0.00 0.00 2 886.4
20230202063802 0 285 0.0 0.0 0.00 0.00 0.00 2 886.4
20230202063302 0 285 0.0 1.0 0.00 0.00 0.00 2 886.4
20230202062803 0 217 0.0 2.0 0.00 0.00 0.00 2 886.4
20230202062305 0 174 0.0 2.0 0.00 0.00 0.00 2 886.4
20230202061804 0 174 0.0 0.0 0.00 0.00 0.00 2 886.4